TimeEDT,TemperatureF,Dew PointF,Humidity,Sea Level PressureIn,VisibilityMPH,Wind Direction,Wind SpeedMPH,Gust SpeedMPH,PrecipitationIn,Events,Conditions,WindDirDegrees,DateUTC
12:10 AM,41.2,37.8,88,30.14,10.0,Calm,Calm,-,N/A,,Clear,0,2013-03-31 04:10:00
12:30 AM,41.2,36.7,84,30.13,10.0,Calm,Calm,-,N/A,,Clear,0,2013-03-31 04:30:00
12:55 AM,40.8,33.6,76,30.13,10.0,Calm,Calm,-,N/A,,Clear,0,2013-03-31 04:55:00
1:15 AM,41.0,33.4,74,30.13,10.0,Calm,Calm,-,N/A,,Clear,0,2013-03-31 05:15:00
1:35 AM,40.3,34.3,79,30.12,10.0,Calm,Calm,-,N/A,,Clear,0,2013-03-31 05:35:00
1:55 AM,40.5,32.9,74,30.12,10.0,Calm,Calm,-,N/A,,Clear,0,2013-03-31 05:55:00
2:15 AM,40.1,34.3,80,30.12,10.0,Calm,Calm,-,N/A,,Clear,0,2013-03-31 06:15:00
2:35 AM,40.8,33.6,76,30.11,10.0,Calm,Calm,-,N/A,,Clear,0,2013-03-31 06:35:00
2:55 AM,40.1,33.8,78,30.11,10.0,Calm,Calm,-,N/A,,Clear,0,2013-03-31 06:55:00
3:15 AM,40.5,34.7,80,30.10,10.0,Calm,Calm,-,N/A,,Clear,0,2013-03-31 07:15:00
3:35 AM,40.1,34.2,79,30.09,10.0,Calm,Calm,-,N/A,,Clear,0,2013-03-31 07:35:00
3:55 AM,39.6,35.2,85,30.08,10.0,Calm,Calm,-,N/A,,Clear,0,2013-03-31 07:55:00
4:15 AM,39.7,33.8,79,30.08,10.0,Calm,Calm,-,N/A,,Clear,0,2013-03-31 08:15:00
4:35 AM,39.6,34.2,81,30.08,10.0,Calm,Calm,-,N/A,,Clear,0,2013-03-31 08:35:00
4:55 AM,38.7,34.2,84,30.07,10.0,Calm,Calm,-,N/A,,Clear,0,2013-03-31 08:55:00
5:15 AM,39.4,33.4,79,30.06,10.0,Calm,Calm,-,N/A,,Clear,0,2013-03-31 09:15:00
5:35 AM,39.6,33.6,79,30.06,10.0,Calm,Calm,-,N/A,,Clear,0,2013-03-31 09:35:00
5:55 AM,39.9,34.3,80,30.04,10.0,Calm,Calm,-,N/A,,Clear,0,2013-03-31 09:55:00
6:15 AM,40.3,33.3,76,30.04,10.0,Calm,Calm,-,N/A,,Clear,0,2013-03-31 10:15:00
6:35 AM,41.0,32.9,73,30.04,10.0,Calm,Calm,-,N/A,,Clear,0,2013-03-31 10:35:00
6:55 AM,40.5,34.2,78,30.04,10.0,Calm,Calm,-,N/A,,Clear,0,2013-03-31 10:55:00
7:15 AM,40.3,35.6,83,30.04,10.0,Calm,Calm,-,N/A,,Clear,0,2013-03-31 11:15:00
7:35 AM,40.5,34.2,78,30.04,10.0,Calm,Calm,-,N/A,,Clear,0,2013-03-31 11:35:00
7:55 AM,41.2,37.0,85,30.04,10.0,Calm,Calm,-,N/A,,Clear,0,2013-03-31 11:55:00
8:15 AM,42.4,36.9,81,30.03,10.0,Calm,Calm,-,N/A,,Clear,0,2013-03-31 12:15:00
8:35 AM,43.2,38.7,84,30.03,10.0,Calm,Calm,-,N/A,,Scattered Clouds,0,2013-03-31 12:35:00
8:55 AM,44.8,39.6,82,30.02,10.0,Calm,Calm,-,N/A,,Overcast,0,2013-03-31 12:55:00
9:15 AM,46.4,39.6,77,30.01,10.0,Calm,Calm,-,N/A,,Overcast,0,2013-03-31 13:15:00
9:25 AM,46.6,40.1,78,30.01,10.0,Calm,Calm,-,N/A,,Overcast,0,2013-03-31 13:25:00
9:55 AM,47.8,40.5,76,29.99,10.0,Calm,Calm,-,N/A,,Overcast,0,2013-03-31 13:55:00
10:15 AM,48.9,41.4,75,29.98,10.0,Calm,Calm,-,N/A,,Overcast,0,2013-03-31 14:15:00
10:35 AM,52.2,42.1,69,29.96,10.0,East,3.5,-,N/A,,Mostly Cloudy,80,2013-03-31 14:35:00
10:55 AM,54.7,41.7,62,29.96,10.0,South,4.6,-,N/A,,Mostly Cloudy,190,2013-03-31 14:55:00
11:15 AM,55.4,41.9,60,29.96,10.0,ESE,3.5,-,N/A,,Mostly Cloudy,120,2013-03-31 15:15:00
11:35 AM,55.4,42.4,62,29.94,10.0,Calm,Calm,-,N/A,,Mostly Cloudy,0,2013-03-31 15:35:00
11:55 AM,57.4,43.0,59,29.93,10.0,Calm,Calm,-,N/A,,Overcast,0,2013-03-31 15:55:00
12:15 PM,59.4,43.7,56,29.91,10.0,South,8.1,17.3,N/A,,Overcast,180,2013-03-31 16:15:00
12:35 PM,59.0,44.4,58,29.90,10.0,South,6.9,19.6,N/A,,Overcast,190,2013-03-31 16:35:00
12:55 PM,58.3,44.4,60,29.89,10.0,South,8.1,-,N/A,,Overcast,180,2013-03-31 16:55:00
1:35 PM,56.3,48.2,74,29.86,10.0,Calm,Calm,-,N/A,,Overcast,0,2013-03-31 17:35:00
1:55 PM,56.5,47.7,72,29.84,10.0,SSE,4.6,-,N/A,,Overcast,160,2013-03-31 17:55:00
2:15 PM,56.8,47.5,71,29.83,10.0,SE,9.2,-,N/A,,Overcast,140,2013-03-31 18:15:00
2:35 PM,55.4,49.1,79,29.82,7.0,SSE,9.2,-,N/A,,Overcast,150,2013-03-31 18:35:00
2:55 PM,54.0,51.1,90,29.81,3.0,SSE,4.6,-,N/A,,Overcast,150,2013-03-31 18:55:00
3:15 PM,53.6,52.5,96,29.79,2.5,SE,4.6,-,N/A,,Overcast,140,2013-03-31 19:15:00
3:35 PM,53.6,53.2,99,29.78,3.0,SSE,3.5,-,N/A,,Overcast,150,2013-03-31 19:35:00
3:55 PM,53.8,53.6,99,29.79,4.0,SSE,3.5,-,N/A,,Overcast,160,2013-03-31 19:55:00
4:15 PM,53.8,53.6,99,29.78,4.0,South,3.5,-,N/A,,Overcast,180,2013-03-31 20:15:00
4:35 PM,53.8,53.8,100,29.78,5.0,SSW,3.5,-,N/A,,Overcast,200,2013-03-31 20:35:00
4:55 PM,54.5,53.4,96,29.77,10.0,SSW,3.5,-,N/A,,Overcast,210,2013-03-31 20:55:00
5:15 PM,54.5,52.9,94,29.77,10.0,SW,6.9,-,N/A,,Overcast,230,2013-03-31 21:15:00
5:35 PM,54.5,53.1,95,29.76,10.0,SW,4.6,-,N/A,,Overcast,220,2013-03-31 21:35:00
5:55 PM,54.5,52.9,94,29.77,7.0,SW,3.5,-,N/A,,Overcast,220,2013-03-31 21:55:00
6:15 PM,54.5,52.9,94,29.76,10.0,SSW,5.8,-,N/A,,Overcast,210,2013-03-31 22:15:00
6:35 PM,54.5,52.7,94,29.76,10.0,SW,4.6,-,N/A,,Overcast,230,2013-03-31 22:35:00
6:55 PM,54.7,52.3,92,29.76,10.0,SW,3.5,-,N/A,,Overcast,220,2013-03-31 22:55:00
7:15 PM,54.9,51.8,89,29.77,10.0,SW,8.1,-,N/A,,Overcast,230,2013-03-31 23:15:00
7:35 PM,54.7,51.1,88,29.76,10.0,SW,3.5,-,N/A,,Overcast,230,2013-03-31 23:35:00
7:55 PM,54.5,50.9,88,29.76,10.0,SW,6.9,-,N/A,,Overcast,220,2013-03-31 23:55:00
8:15 PM,53.6,50.2,88,29.77,10.0,WSW,4.6,-,N/A,,Mostly Cloudy,240,2013-04-01 00:15:00
8:35 PM,53.1,50.2,90,29.77,10.0,West,4.6,-,N/A,,Mostly Cloudy,260,2013-04-01 00:35:00
8:55 PM,52.7,50.0,91,29.78,10.0,WSW,3.5,-,N/A,,Mostly Cloudy,250,2013-04-01 00:55:00
9:15 PM,52.9,50.2,91,29.78,10.0,WSW,3.5,-,N/A,,Mostly Cloudy,240,2013-04-01 01:15:00
9:35 PM,52.9,50.0,90,29.79,10.0,SSW,3.5,-,N/A,,Mostly Cloudy,210,2013-04-01 01:35:00
9:55 PM,52.9,50.0,90,29.79,10.0,South,3.5,-,N/A,,Overcast,190,2013-04-01 01:55:00
10:15 PM,52.7,50.0,91,29.80,10.0,Calm,Calm,-,N/A,,Overcast,0,2013-04-01 02:15:00
10:35 PM,52.9,50.0,90,29.79,10.0,Calm,Calm,-,N/A,,Overcast,0,2013-04-01 02:35:00
11:15 PM,52.2,50.0,92,29.79,10.0,Calm,Calm,-,N/A,,Scattered Clouds,0,2013-04-01 03:15:00
11:35 PM,50.2,48.7,95,29.79,7.0,Calm,Calm,-,N/A,,Scattered Clouds,0,2013-04-01 03:35:00
11:55 PM,47.7,47.7,100,29.79,4.0,Calm,Calm,-,N/A,,Clear,0,2013-04-01 03:55:00